📊 Raw Sensor Data
Showing records 47926 to 47950 of 85,093 total
| ID | Distance (ft) | Battery V | Battery A | Int Temp (°F) | Int Humid (%) | Ext Temp (°F) | Solar V | RSSI | SNR | Time Stamp |
|---|---|---|---|---|---|---|---|---|---|---|
| 37180 | 15.4 | 3.67 | -5 | 57 | 43 | 57 | 0.00 | -78 | 8 | 04/07/2025 09:00 PM |
| 37179 | 14.6 | 3.68 | -5 | 57 | 44 | 58 | 0.00 | -82 | 8 | 04/07/2025 08:45 PM |
| 37178 | -- | 3.66 | -5 | 58 | 44 | 58 | 0.10 | -80 | 8 | 04/07/2025 08:30 PM |
| 37177 | -- | 3.66 | -5 | 59 | 45 | 59 | 0.00 | -79 | 8 | 04/07/2025 08:15 PM |
| 37176 | -- | 3.68 | -5 | 59 | 46 | 60 | 0.00 | -79 | 7 | 04/07/2025 08:00 PM |
| 37175 | -- | 3.67 | -5 | 61 | 46 | 60 | 0.70 | -78 | 8 | 04/07/2025 07:45 PM |
| 37174 | -- | 3.66 | -10 | 63 | 46 | 61 | 4.10 | -80 | 7 | 04/07/2025 07:30 PM |
| 37173 | -- | 3.72 | 0 | 67 | 44 | 63 | 4.60 | -77 | 8 | 04/07/2025 07:15 PM |
| 37172 | -- | 3.81 | 14 | 69 | 43 | 66 | 4.50 | -79 | 8 | 04/07/2025 07:00 PM |
| 37171 | -- | 3.85 | 0 | 69 | 44 | 66 | 5.10 | -78 | 8 | 04/07/2025 06:30 PM |
| 37170 | -- | 3.84 | 0 | 70 | 44 | 66 | 5.10 | -79 | 8 | 04/07/2025 06:15 PM |
| 37169 | -- | 3.84 | 0 | 71 | 44 | 67 | 5.10 | -78 | 7 | 04/07/2025 06:00 PM |
| 37168 | -- | 3.84 | 0 | 72 | 44 | 69 | 5.10 | -78 | 8 | 04/07/2025 05:45 PM |
| 37167 | -- | 4.09 | 0 | 72 | 45 | 69 | 5.10 | -78 | 8 | 04/07/2025 05:30 PM |
| 37166 | -- | 3.84 | 0 | 73 | 45 | 69 | 5.10 | -77 | 8 | 04/07/2025 05:15 PM |
| 37165 | -- | 3.84 | 0 | 76 | 44 | 70 | 5.10 | -80 | 7 | 04/07/2025 05:00 PM |
| 37164 | -- | 3.94 | 0 | 77 | 44 | 71 | 5.10 | -78 | 8 | 04/07/2025 04:45 PM |
| 37163 | -- | 4.03 | 0 | 78 | 44 | 72 | 5.10 | -77 | 8 | 04/07/2025 04:30 PM |
| 37162 | -- | 3.84 | 0 | 80 | 43 | 71 | 5.10 | -78 | 9 | 04/07/2025 04:15 PM |
| 37161 | -- | 3.84 | 0 | 82 | 42 | 75 | 5.10 | -75 | 9 | 04/07/2025 04:00 PM |
| 37160 | -- | 4.03 | 0 | 82 | 42 | 75 | 5.10 | -78 | 9 | 04/07/2025 03:46 PM |
| 37159 | -- | 3.84 | 0 | 82 | 41 | 76 | 5.10 | -77 | 9 | 04/07/2025 03:30 PM |
| 37158 | -- | 3.88 | 0 | 83 | 41 | 74 | 5.10 | -77 | 8 | 04/07/2025 03:15 PM |
| 37157 | -- | 3.84 | 0 | 83 | 40 | 76 | 5.10 | -79 | 8 | 04/07/2025 03:00 PM |
| 37156 | -- | 3.84 | 0 | 83 | 40 | 76 | 5.10 | -78 | 8 | 04/07/2025 02:45 PM |